Wind_Speed
28 28 25 23 24 25 25 24 22 21 20 18 17 16 14 13 13 13 12 10 8 7 7 7 7 5 4 4 4 5 6 8 8 7 7 8 8 8 8 8 6 6
28 26 24 23 22 24 23 23 22 21 19 18 16 15 15 14 14 13 11 10 8 6 7 8 8 6 4 3 3 4 5 6 7 8 7 8 9 8 7 7 6 5
28 26 24 23 22 22 22 22 23 21 18 17 16 15 15 14 14 13 11 10 8 6 7 7 9 8 5 3 1 2 3 4 5 6 6 7 8 9 7 6 5 5
27 25 22 23 22 20 21 22 23 22 20 19 18 17 16 15 14 13 12 10 8 7 7 7 9 9 7 4 2 1 1 1 2 3 3 3 5 6 6 4 4 4
24 24 22 23 22 20 22 23 23 23 22 21 20 18 17 17 16 15 13 12 10 8 8 7 7 8 7 6 4 4 2 1 1 1 0 1 1 2 2 2 3 3
22 23 22 21 20 22 23 23 23 23 22 21 21 20 19 19 18 16 15 14 12 11 10 10 9 8 8 7 6 6 5 4 3 2 2 3 2 1 1 2 3 2
22 22 21 18 19 23 24 23 23 23 22 21 20 21 21 20 20 18 16 15 14 13 11 11 10 9 8 8 7 8 8 7 7 6 5 5 5 4 3 2 4 3
21 21 21 20 20 23 24 23 22 22 23 21 20 20 21 21 21 19 18 17 15 14 13 12 11 10 9 9 9 10 10 10 10 9 9 8 8 8 6 4 4 5
18 19 21 20 18 18 18 18 18 19 20 21 19 19 20 22 22 21 20 18 17 16 15 14 13 12 11 11 10 10 11 12 12 11 11 11 11 11 10 8 7 6
15 16 17 18 18 17 14 14 16 17 17 16 16 17 17 19 21 21 21 20 19 19 18 17 16 15 15 14 13 13 12 12 13 13 13 14 13 13 13 12 11 9
10 11 11 11 14 16 15 13 14 15 16 14 13 14 15 15 16 18 20 21 21 21 20 19 17 17 18 18 18 17 16 15 15 15 16 16 16 16 15 15 14 13
9 9 10 9 9 10 13 14 13 14 16 15 15 14 13 12 12 13 16 19 20 20 20 18 17 16 17 19 20 20 19 18 18 19 19 19 19 18 17 17 17 16
14 11 10 10 8 7 9 12 14 14 13 14 17 17 13 12 12 12 13 15 16 18 18 17 17 17 17 18 19 20 20 20 21 22 22 22 21 20 19 18 18 17
13 11 9 9 8 9 10 12 15 15 14 15 16 15 12 12 13 13 13 12 12 13 14 16 18 19 19 19 19 19 19 19 20 22 24 24 24 23 23 21 19 19
6 7 5 4 5 8 10 12 13 12 12 11 11 10 10 12 13 14 14 13 13 13 14 15 17 19 20 20 20 21 22 21 20 22 24 26 26 26 25 25 22 20
6 6 5 5 5 6 7 8 8 7 7 6 6 7 8 10 11 12 12 12 13 14 14 15 17 18 19 19 20 20 22 22 22 22 24 26 26 26 27 26 24 23
6 7 5 4 4 4 4 3 3 2 2 2 2 3 4 5 7 8 9 9 10 10 11 13 14 16 17 17 17 18 20 20 21 22 23 24 24 25 27 27 26 24
5 5 4 3 4 4 3 3 3 3 3 3 3 3 3 3 3 5 6 8 9 10 10 10 10 10 11 13 14 15 17 19 20 21 21 20 20 22 25 26 26 25
3 3 3 3 3 4 4 4 4 4 4 5 5 5 4 5 5 5 6 7 8 9 10 11 11 10 9 10 11 11 13 15 17 18 19 20 20 20 21 24 26 27
1 0 0 0 1 1 1 1 2 3 4 5 6 6 6 6 6 7 8 8 9 9 9 10 11 11 12 12 11 11 11 12 13 15 16 17 19 20 21 23 26 27
2 3 3 3 2 2 3 3 4 5 5 6 7 7 7 7 7 8 8 9 10 10 10 11 11 11 13 14 13 12 12 11 11 12 13 14 16 20 21 23 25 25
2 1 1 1 2 3 4 5 6 7 7 8 8 8 8 8 8 8 9 10 10 11 12 12 12 12 12 14 15 14 13 12 10 10 12 13 16 17 18 20 21 20
5 4 4 3 2 2 3 4 5 7 7 8 8 9 9 9 9 10 10 11 11 12 13 13 13 12 12 14 16 15 14 12 10 10 11 11 11 12 14 15 15 14
6 6 6 6 6 7 7 7 7 8 8 8 9 9 9 10 10 11 11 12 13 13 13 13 13 12 11 12 14 13 12 12 12 12 13 14 14 15 14 14 13 12
7 8 9 9 10 10 9 9 9 9 10 11 12 12 11 10 10 10 11 11 12 12 12 11 11 10 9 9 10 9 10 12 13 14 16 16 15 15 13 11 10 9
8 9 10 10 10 10 10 10 10 10 9 10 11 11 11 10 10 10 9 9 9 9 9 9 8 7 5 5 6 7 9 11 13 15 16 16 14 13 12 10 8 7
Wind_Direction
182 181 183 183 178 176 177 181 182 179 176 175 173 172 165 156 155 154 148 140 136 135 139 148 149 137 123 109 83 73 83 88 89 99 127 137 129 120 117 110 105 114
187 186 187 187 184 182 183 186 188 185 183 180 173 168 165 160 159 158 153 148 144 138 140 149 157 155 142 133 105 59 79 106 103 90 101 128 133 126 115 101 91 95
191 191 191 191 189 188 189 191 193 193 191 187 179 171 168 165 163 163 160 158 156 147 142 149 159 161 153 144 144 30 66 103 113 94 86 108 127 130 119 101 89 78
194 195 195 195 195 193 193 194 197 200 200 196 190 182 177 173 170 169 168 167 164 156 147 149 161 167 165 169 221 279 51 66 102 97 75 88 118 132 128 116 106 81
195 199 199 197 199 201 199 200 202 204 205 204 198 192 187 183 179 177 175 176 172 168 162 157 164 173 175 184 213 233 232 252 253 121 195 232 126 119 129 141 139 106
191 196 196 195 203 209 206 206 207 207 208 208 204 200 195 191 189 185 184 186 183 179 177 172 171 175 181 189 201 220 227 233 247 246 227 232 238 270 280 178 171 158
183 187 189 194 209 216 214 212 212 211 211 208 204 204 202 198 196 194 195 196 194 191 189 185 181 179 185 193 198 211 221 224 234 241 238 240 237 248 264 208 190 203
180 187 192 198 211 218 216 214 213 212 212 211 207 205 206 204 202 201 203 205 203 202 199 197 196 193 195 202 204 210 218 221 224 229 234 239 236 237 245 233 211 216
181 189 193 196 204 210 211 210 207 206 209 212 211 210 210 209 208 207 207 209 211 211 207 204 206 209 211 215 218 218 222 224 226 229 231 235 237 236 237 236 229 225
176 177 182 189 194 193 196 200 196 196 205 212 210 207 208 210 212 214 213 212 213 214 213 211 212 217 221 223 226 227 228 229 230 233 234 235 237 236 235 234 233 230
176 174 181 195 197 193 199 207 204 205 217 225 218 206 201 203 210 215 217 217 217 217 215 215 216 221 226 230 232 231 231 232 234 236 238 237 236 235 233 232 232 233
209 209 214 227 224 211 218 226 225 222 224 232 237 229 214 209 211 215 217 220 223 221 219 221 224 228 231 233 235 235 235 236 237 239 241 241 240 237 234 233 232 233
219 223 225 233 237 235 241 241 235 232 231 233 238 236 228 226 230 228 224 223 226 228 229 233 236 238 238 236 235 238 240 240 240 242 244 244 245 243 240 237 234 230
225 229 231 239 244 248 257 255 246 242 241 236 235 237 239 241 242 238 233 229 230 236 243 245 244 243 242 241 240 241 246 249 246 244 244 244 245 245 243 241 237 232
211 208 207 217 235 245 248 250 250 247 241 235 237 245 250 251 250 248 246 246 248 252 256 255 252 249 248 248 247 248 255 261 256 248 246 244 243 243 241 239 237 234
177 179 185 198 219 238 239 240 247 249 247 248 249 254 259 259 260 260 260 262 264 264 261 258 256 255 255 256 256 257 260 262 260 255 250 246 243 243 240 236 233 232
171 182 195 209 212 219 225 229 247 259 274 284 274 281 287 283 279 275 273 275 278 275 268 263 262 262 262 263 263 263 261 260 260 258 253 248 246 244 239 233 228 227
135 147 145 142 137 126 117 107 87 74 69 60 49 35 18 0 336 313 302 295 289 284 279 276 276 278 275 271 268 265 262 260 259 256 250 248 246 242 237 231 225 219
105 115 105 112 124 115 101 88 70 55 48 36 24 17 8 358 352 344 339 333 319 306 295 286 283 284 283 280 277 273 267 263 262 259 254 250 247 241 236 230 223 214
18 331 10 52 132 136 107 52 12 2 7 4 360 358 353 346 342 338 339 338 334 328 319 307 296 284 275 273 276 278 272 264 263 265 263 257 251 244 238 232 223 213
299 288 279 266 250 265 289 309 320 323 326 327 331 336 337 336 336 333 330 326 322 320 318 318 314 297 276 264 265 272 272 264 259 260 261 258 252 246 239 229 218 209
19 1 333 274 244 258 264 274 290 294 294 298 303 306 311 316 318 318 318 315 313 312 313 314 314 309 289 271 264 266 267 265 257 249 247 244 241 236 227 216 210 207
25 27 29 29 11 326 291 283 284 280 278 278 280 285 292 300 306 309 308 307 306 306 308 310 311 311 301 282 269 262 259 256 244 227 219 210 201 196 191 187 187 191
358 358 1 356 346 340 331 319 306 296 290 283 279 282 286 290 296 300 299 299 302 303 306 309 307 307 301 284 269 260 252 241 223 203 188 174 163 160 163 167 169 177
339 335 335 334 329 326 326 324 317 308 302 293 284 279 278 280 283 287 290 294 298 302 307 310 309 307 299 279 262 250 237 222 207 189 174 167 166 165 166 173 180 188
324 323 323 323 320 317 318 321 319 317 313 305 291 275 265 264 264 267 275 281 287 295 300 305 310 310 298 271 244 226 215 205 196 184 171 162 163 165 163 163 168 173
Height
807 808 810 812 813 815 817 820 822 822 822 821 821 821 821 821 821 821 822 823 823 824 824 825 826 826 827 827 827 828 827 827 827 828 828 828 828 828 828 828 828 828
807 808 810 812 814 816 818 820 822 823 822 822 822 821 821 821 821 821 822 822 823 824 824 825 826 826 827 827 828 828 828 828 828 828 828 828 829 829 829 829 829 829
806 807 809 811 814 816 818 820 822 823 823 823 822 822 822 821 821 821 822 822 823 824 824 825 826 826 827 828 828 829 829 829 829 829 829 829 829 830 830 830 830 830
805 806 808 811 814 816 819 820 821 822 823 823 823 822 822 821 822 821 821 822 822 823 824 825 826 826 827 828 828 829 829 829 829 829 830 830 830 830 830 830 830 831
804 806 807 811 814 816 818 819 820 821 821 822 822 822 822 821 821 821 821 821 821 822 823 824 825 826 827 827 828 828 829 829 830 830 830 830 831 831 831 831 831 831
803 805 808 811 814 816 817 818 819 819 820 820 820 821 821 821 821 821 821 820 820 820 820 821 823 824 825 826 827 828 829 829 830 830 830 831 831 831 832 832 832 832
801 804 807 811 814 816 816 817 818 819 819 819 819 819 820 820 820 820 820 819 819 819 820 820 821 822 823 824 825 826 827 828 829 829 830 830 830 831 831 832 832 832
800 803 806 809 812 814 815 816 817 818 818 819 818 818 819 819 819 819 819 819 819 819 820 820 821 822 822 823 823 824 825 826 827 828 828 829 830 830 831 831 832 832
801 803 805 807 810 812 813 814 815 816 817 818 817 817 818 818 818 819 819 819 820 819 819 820 820 821 821 822 822 823 824 825 826 827 827 828 829 829 830 831 831 832
802 803 804 806 808 809 811 813 813 814 816 816 816 816 816 817 817 818 818 818 819 819 819 819 819 820 821 821 821 822 823 824 825 825 826 827 827 828 829 829 830 831
802 803 805 806 807 807 810 811 811 812 814 815 815 814 814 815 816 816 817 817 817 817 817 818 818 819 820 820 820 821 822 822 823 824 824 825 825 826 827 828 828 829
803 803 806 808 807 807 809 809 810 811 813 814 816 815 812 812 814 815 816 816 816 816 816 817 817 817 818 819 819 820 820 821 821 822 822 823 824 824 825 826 827 828
802 803 805 806 806 806 808 809 809 810 811 814 816 814 811 811 812 813 814 815 816 816 816 816 816 816 816 817 818 818 819 819 819 820 821 822 823 824 824 824 825 826
802 803 804 805 805 805 807 808 809 809 810 812 813 811 810 810 811 812 813 814 814 814 814 814 814 815 815 816 816 816 817 816 817 818 819 820 821 822 823 823 823 824
802 803 804 805 805 806 807 808 809 809 808 809 809 808 808 809 810 811 811 812 812 812 812 812 812 813 814 814 815 815 815 814 815 816 816 817 819 820 820 821 821 822
803 804 805 806 807 807 808 808 808 808 807 807 807 807 808 808 809 809 809 810 810 810 811 811 811 811 812 812 813 813 813 813 813 814 814 815 816 817 818 819 819 820
805 806 806 807 807 808 808 808 808 808 807 807 807 807 808 808 808 808 808 808 809 809 809 809 809 810 810 811 811 811 811 811 811 812 812 813 814 814 815 816 817 818
806 806 806 807 807 807 807 807 807 807 807 807 807 807 807 807 807 808 807 808 808 808 809 808 808 809 809 809 809 809 810 810 810 811 811 811 812 812 813 814 814 815
805 805 806 806 806 807 807 807 807 807 807 807 807 807 807 807 807 807 807 807 807 808 808 808 808 808 807 808 808 808 808 809 809 809 810 810 810 811 811 812 813 814
805 805 805 805 806 806 806 806 806 806 806 806 806 807 807 807 807 807 807 807 807 807 807 807 807 806 806 806 806 806 807 807 808 808 808 808 809 809 810 811 811 812
804 804 804 804 805 805 805 805 805 805 806 806 806 806 806 806 807 807 806 806 806 806 806 806 805 805 805 805 805 805 805 805 806 806 806 806 807 807 808 809 810 811
804 804 804 804 804 804 805 805 805 805 805 805 805 805 805 805 806 806 805 805 805 805 805 805 805 804 804 804 803 803 803 803 804 805 805 805 806 806 807 809 810 811
804 804 804 804 804 804 804 804 805 805 805 805 805 804 804 804 804 804 804 804 804 804 804 804 804 803 803 802 802 802 802 802 802 803 804 805 805 806 808 809 810 812
803 803 803 804 804 804 804 804 804 804 804 804 804 804 804 804 803 803 803 803 803 803 803 802 802 802 802 802 801 801 801 801 801 802 804 805 806 807 808 809 810 811
802 802 802 803 803 803 803 803 803 803 803 803 803 803 802 802 802 802 802 802 802 802 802 801 801 801 801 801 800 801 801 801 801 802 803 804 805 806 807 808 809 810
800 801 801 801 802 802 802 802 803 802 802 802 802 802 801 801 801 801 801 802 802 801 801 801 801 800 800 800 800 801 801 802 802 802 803 804 805 806 807 808 809 810